1496289601.14,24868,16.94,74004.8,2.37,-38.11,-38.29,0,*70
1496289602.38,24869,16.94,73980.3,2.37,-38.29,-38.35,0,*77
1496289603.59,24870,16.94,74008.8,2.37,-38.55,-38.55,0,*72
1496289604.85,24871,16.94,74010.0,2.37,-38.49,-38.49,0,*73
1496289606.1,24872,16.88,74000.5,2.39,-38.23,-38.43,0,*78
1496289607.36,24873,16.94,74022.3,2.37,-38.29,-38.49,0,*77
1496289608.62,24874,16.94,74002.0,2.37,-38.29,-38.49,0,*70
1496289609.82,24875,16.94,74024.5,2.37,-38.35,-38.55,0,*71
1496289611.05,24876,16.94,74038.8,2.37,-37.99,-38.17,0,*7D
1496289612.29,24877,16.94,74044.0,2.37,-37.75,-37.99,0,*77
1496289613.54,24878,16.94,74044.5,2.37,-37.69,-37.81,0,*7C
1496289614.8,24879,16.94,74042.8,2.37,-37.93,-38.11,0,*7E
1496289616.0,24880,16.94,74010.8,2.37,-38.17,-38.35,0,*7D
1496289617.26,24881,16.94,74012.0,2.37,-38.11,-38.29,0,*77
1496289618.49,24882,16.94,74004.3,2.37,-38.17,-38.49,0,*74
1496289619.75,24883,16.94,73992.8,2.37,-38.29,-38.49,0,*78
1496289621.03,24884,16.94,73974.3,2.39,-38.29,-38.49,0,*71
1496289622.26,24885,16.94,73996.8,2.35,-38.49,-38.55,0,*77
1496289623.48,24886,16.94,74004.0,2.35,-38.35,-38.67,0,*7E
1496289624.71,24887,16.94,74002.0,2.35,-38.35,-38.67,0,*7F
1496289625.9,24888,16.94,73988.8,2.35,-38.35,-38.73,0,*75
1496289627.15,24889,16.94,73990.3,2.35,-38.29,-38.67,0,*7C
1496289628.35,24890,16.94,73968.5,2.35,-38.35,-38.55,0,*78
1496289629.57,24891,16.94,73972.5,2.33,-38.35,-38.61,0,*78
1496289630.79,24892,16.94,73984.8,2.33,-38.43,-38.73,0,*79
1496289632.05,24893,16.94,74014.5,2.35,-38.29,-38.67,0,*77
1496289633.24,24894,16.94,73994.5,2.35,-38.35,-38.73,0,*78
1496289634.43,24895,16.94,74014.0,2.35,-38.55,-38.73,0,*7F
1496289635.66,24896,16.94,74002.0,2.35,-38.55,-38.67,0,*79
1496289636.85,24897,16.94,73998.8,2.35,-38.55,-38.73,0,*7D
1496289638.07,24898,16.94,74008.8,2.33,-38.55,-38.73,0,*74
1496289639.33,24899,16.94,73996.3,2.33,-38.61,-38.79,0,*78
1496289640.55,24900,16.94,74004.8,2.33,-38.61,-38.73,0,*73
1496289641.77,24901,16.88,74016.8,2.33,-38.35,-38.73,0,*73
1496289642.99,24902,16.94,74034.0,2.29,-38.35,-38.61,0,*78
1496289644.21,24903,16.94,74024.3,2.29,-38.35,-38.55,0,*7E
1496289645.46,24904,16.94,74016.3,2.29,-38.23,-38.55,0,*7E
1496289646.68,24905,16.94,74020.8,2.29,-38.35,-38.61,0,*7F
1496289647.93,24906,16.94,74012.8,2.29,-38.23,-38.61,0,*7B
1496289649.18,24907,16.94,74012.0,2.29,-38.23,-38.61,0,*7A
1496289650.4,24908,16.94,74036.3,2.29,-38.43,-38.61,0,*73
1496289651.63,24909,16.94,74032.5,2.29,-38.43,-38.61,0,*72
1496289652.87,24910,16.94,74036.0,2.29,-38.23,-38.61,0,*7C
1496289654.08,24911,16.94,74020.5,2.27,-38.35,-38.55,0,*73
1496289655.3,24912,16.94,74002.8,2.29,-38.43,-38.55,0,*7F
1496289656.56,24913,16.94,74018.8,2.27,-38.49,-38.79,0,*74
1496289657.78,24914,16.94,74060.8,2.29,-38.43,-38.73,0,*7D
1496289659.03,24915,16.94,74064.8,2.29,-37.99,-38.17,0,*76
1496289660.25,24916,16.94,74052.8,2.29,-37.27,-37.45,0,*78
1496289661.49,24917,16.94,74052.8,2.29,-37.21,-37.45,0,*7F
1496289662.74,24918,16.94,74034.8,2.29,-36.67,-36.91,0,*7B
1496289664.03,24919,16.94,73970.8,2.33,-37.21,-37.39,0,*71
1496289665.28,24920,16.94,73982.3,2.35,-37.51,-37.69,0,*7F
1496289666.51,24921,16.94,74024.0,2.33,-37.87,-38.17,0,*75
1496289667.71,24922,16.94,74030.3,2.35,-36.97,-37.15,0,*7D
1496289668.99,24923,16.94,73976.3,2.33,-37.63,-37.81,0,*7D
1496289670.22,24924,16.94,74004.8,2.33,-37.87,-38.05,0,*73
1496289671.47,24925,16.94,73994.8,2.35,-37.93,-38.11,0,*74
1496289672.72,24926,16.94,74002.0,2.37,-37.69,-37.81,0,*76
1496289673.96,24927,16.94,74010.5,2.37,-37.75,-37.99,0,*73
1496289675.18,24928,16.94,74014.0,2.37,-37.75,-38.11,0,*73
1496289676.44,24929,16.94,74010.0,2.37,-37.99,-38.29,0,*7B
1496289677.7,24930,16.94,74002.5,2.35,-37.99,-38.29,0,*71
1496289678.96,24931,16.94,73992.0,2.39,-37.87,-38.23,0,*79
1496289680.22,24932,16.94,73988.5,2.37,-37.99,-38.29,0,*71
1496289681.46,24933,16.94,74006.5,2.37,-38.11,-38.35,0,*72
1496289682.65,24934,16.94,74008.3,2.37,-38.17,-38.35,0,*73
1496289683.86,24935,16.94,74026.3,2.37,-38.17,-38.55,0,*74
1496289685.12,24936,16.94,74032.8,2.37,-38.11,-38.49,0,*7C
1496289686.37,24937,16.94,74036.5,2.37,-38.11,-38.49,0,*7D
1496289687.6,24938,16.94,74042.0,2.37,-38.17,-38.49,0,*74
1496289688.86,24939,16.94,74052.3,2.37,-38.11,-38.49,0,*73
1496289690.11,24940,16.94,74036.3,2.37,-37.99,-38.11,0,*7F
1496289691.35,24941,16.94,74006.8,2.39,-37.75,-38.11,0,*72
1496289692.61,24942,16.94,73988.8,2.37,-37.99,-38.29,0,*76
1496289693.87,24943,16.94,74000.0,2.39,-37.87,-38.23,0,*7C
1496289695.13,24944,16.94,73996.8,2.37,-37.99,-38.11,0,*7B
1496289696.38,24945,16.94,74016.5,2.39,-37.87,-38.11,0,*7B
1496289697.63,24946,16.94,74008.8,2.39,-37.87,-38.11,0,*78
1496289698.88,24947,16.94,74018.3,2.39,-37.87,-38.11,0,*79
1496289700.12,24948,16.94,74040.0,2.41,-37.69,-37.87,0,*79
1496289701.34,24949,16.94,74052.8,2.39,-37.87,-38.05,0,*72
1496289702.59,24950,16.94,74042.5,2.39,-37.75,-37.93,0,*77
1496289703.85,24951,16.94,74004.0,2.41,-37.69,-37.81,0,*77
1496289705.08,24952,16.94,74000.3,2.39,-37.87,-38.05,0,*78
1496289706.33,24953,16.94,74012.3,2.39,-37.69,-37.87,0,*7C
1496289707.56,24954,16.94,74038.0,2.41,-37.57,-37.69,0,*79
1496289708.83,24955,16.94,74030.3,2.43,-37.39,-37.69,0,*72
1496289710.09,24956,16.94,74042.0,2.41,-37.39,-37.63,0,*79
1496289711.32,24957,16.94,74046.3,2.43,-37.45,-37.57,0,*76
1496289712.56,24958,16.94,74052.5,2.43,-37.27,-37.57,0,*7D
1496289713.82,24959,16.94,73996.8,2.43,-36.73,-37.09,0,*77
1496289715.02,24960,16.94,74004.3,2.45,-36.67,-37.03,0,*74
1496289716.22,24961,16.94,73984.0,2.45,-37.15,-37.33,0,*72
1496289717.45,24962,16.94,73976.0,2.45,-37.33,-37.51,0,*71
1496289718.7,24963,16.94,73974.0,2.45,-37.51,-37.81,0,*79
1496289719.98,24964,16.94,73978.3,2.47,-37.51,-37.81,0,*7C
1496289721.26,24965,16.94,73982.0,2.47,-37.39,-37.81,0,*73
1496289722.51,24966,16.94,74026.3,2.47,-37.39,-37.57,0,*7B
1496289723.79,24967,16.94,74044.5,2.47,-37.51,-37.63,0,*73
1496289724.99,24968,16.94,74002.5,2.49,-37.57,-37.75,0,*73
1496289726.22,24969,16.94,74038.0,2.49,-37.69,-37.87,0,*72
1496289727.46,24970,16.94,74036.0,2.51,-37.57,-37.69,0,*7E
1496289728.74,24971,16.94,74042.8,2.51,-37.69,-37.69,0,*72
1496289730.01,24972,16.94,74020.3,2.51,-37.51,-37.51,0,*71
1496289731.24,24973,16.94,74046.5,2.51,-37.15,-37.15,0,*70
1496289732.44,24974,16.94,74042.8,2.49,-37.15,-37.27,0,*7F
1496289733.66,24975,16.94,74034.0,2.51,-37.27,-37.27,0,*76
1496289734.89,24976,16.94,74018.8,2.51,-37.27,-37.33,0,*70
1496289736.11,24977,16.94,74014.3,2.51,-37.33,-37.45,0,*75
1496289737.33,24978,16.94,74016.8,2.53,-37.39,-37.27,0,*76
1496289738.55,24979,16.94,74014.5,2.51,-37.27,-37.33,0,*7F
1496289739.78,24980,16.94,73998.8,2.53,-37.03,-37.09,0,*74
1496289741.01,24981,16.94,74002.0,2.57,-36.85,-37.21,0,*74
1496289742.23,24982,16.94,74020.3,2.57,-37.15,-37.21,0,*7F
1496289743.46,24983,16.94,74032.0,2.57,-37.03,-37.21,0,*79
1496289744.71,24984,16.94,74036.0,2.59,-37.03,-37.21,0,*70
1496289745.93,24985,16.94,74024.5,2.59,-37.03,-37.33,0,*72
1496289747.16,24986,16.94,74022.8,2.59,-37.03,-37.33,0,*71
1496289748.41,24987,16.94,74020.0,2.59,-37.33,-37.39,0,*79
1496289749.63,24988,16.94,74016.8,2.61,-37.09,-37.33,0,*7E
1496289750.85,24989,16.94,74022.5,2.61,-37.27,-37.69,0,*7C
1496289752.05,24990,16.94,74028.0,2.61,-37.27,-37.57,0,*79
1496289753.3,24991,16.94,74040.0,2.61,-37.09,-37.39,0,*7C
1496289754.55,24992,16.94,74040.3,2.59,-37.03,-37.39,0,*7E
1496289755.75,24993,16.94,74042.0,2.61,-36.97,-37.33,0,*72
1496289757.0,24994,16.94,74042.8,2.63,-37.09,-37.33,0,*71
1496289758.24,24995,16.94,74028.0,2.63,-37.09,-37.33,0,*70
1496289759.47,24996,16.94,73998.3,2.65,-37.09,-37.27,0,*70
1496289760.69,24997,16.94,73976.8,2.63,-37.27,-37.27,0,*7B
1496289761.94,24998,16.94,73962.5,2.65,-37.09,-37.09,0,*72
1496289763.16,24999,16.94,74040.0,2.63,-37.15,-37.27,0,*74
1496289764.39,25000,16.94,74034.3,2.65,-36.91,-37.03,0,*71
1496289765.64,25001,16.94,74036.3,2.65,-36.91,-37.09,0,*7A
1496289766.88,25002,16.94,74024.5,2.67,-36.79,-36.97,0,*7B
1496289768.11,25003,16.94,73980.8,2.67,-37.15,-37.27,0,*7B
1496289769.36,25004,16.94,73954.0,2.69,-36.85,-37.21,0,*7C
1496289770.6,25005,16.94,73992.0,2.69,-36.97,-37.15,0,*79
1496289771.83,25006,16.94,74034.0,2.69,-36.85,-37.03,0,*7E
1496289773.06,25007,16.94,74008.5,2.69,-36.67,-36.85,0,*7C
1496289774.28,25008,16.94,74026.5,2.69,-36.67,-36.85,0,*73
1496289775.51,25009,16.94,74030.3,2.71,-36.55,-36.79,0,*79
1496289776.77,25010,16.94,74018.3,2.73,-36.55,-36.91,0,*75
1496289777.99,25011,16.94,74020.0,2.71,-36.55,-36.79,0,*70
1496289779.24,25012,16.94,74014.3,2.71,-35.41,-35.65,0,*7B
1496289780.47,25013,16.94,74032.0,2.79,-34.77,-34.95,0,*78
1496289781.74,25014,16.94,74070.3,2.81,-34.83,-35.01,0,*7F
1496289782.99,25015,16.94,74064.5,2.81,-35.13,-35.35,0,*71
1496289784.25,25016,16.94,74042.5,2.85,-36.01,-36.25,0,*74
1496289785.5,25017,16.94,74048.3,2.85,-36.25,-36.43,0,*73
1496289786.76,25018,16.94,74034.0,2.85,-36.19,-36.25,0,*73
1496289787.97,25019,16.94,73988.3,2.87,-36.67,-36.67,0,*7F
1496289789.17,25020,16.94,73976.0,2.87,-36.73,-36.73,0,*75
1496289790.45,25021,16.94,73992.5,2.85,-36.79,-36.79,0,*76
1496289791.65,25022,17.0,73992.3,2.87,-36.55,-36.67,0,*76
1496289792.88,25023,16.94,74000.8,2.87,-36.49,-36.67,0,*7A
1496289794.11,25024,16.94,74006.0,2.87,-36.37,-36.67,0,*74
1496289795.34,25025,16.94,74008.5,2.87,-36.49,-36.73,0,*79
1496289796.59,25026,16.94,74032.8,2.91,-36.37,-36.61,0,*77
1496289797.81,25027,16.94,74034.3,2.91,-36.61,-36.85,0,*7F
1496289799.05,25028,16.94,74046.3,2.89,-36.85,-37.15,0,*7B
1496289800.31,25029,16.94,74042.5,2.89,-36.85,-37.09,0,*77
1496289801.59,25030,16.94,74044.8,2.89,-36.91,-37.09,0,*7A
1496289802.81,25031,16.94,74036.5,2.91,-37.09,-37.27,0,*7E
1496289804.04,25032,17.0,74036.5,2.91,-37.09,-37.27,0,*7D
1496289805.27,25033,16.94,74026.0,2.91,-37.09,-37.03,0,*7A
1496289806.47,25034,17.0,74008.3,2.91,-37.03,-37.03,0,*77
1496289807.69,25035,17.0,73990.3,2.91,-36.79,-36.85,0,*75
1496289808.91,25036,17.0,73986.8,2.93,-36.97,-36.85,0,*74
1496289810.16,25037,16.94,74018.5,2.93,-36.61,-36.55,0,*71
1496289811.4,25038,17.0,74040.5,2.95,-36.79,-36.79,0,*7F
1496289812.63,25039,16.94,74018.3,2.93,-36.55,-36.43,0,*7F
1496289813.86,25040,17.0,74020.3,2.93,-36.55,-36.55,0,*76
1496289815.08,25041,17.0,74020.3,2.95,-36.79,-36.85,0,*72
1496289816.31,25042,17.0,74026.0,2.97,-36.67,-36.55,0,*71
1496289817.53,25043,17.0,74022.0,2.95,-36.61,-36.85,0,*79
1496289818.78,25044,17.0,74036.3,2.97,-37.09,-37.33,0,*7F
1496289820.04,25045,16.94,74052.0,2.97,-37.09,-37.27,0,*7B
1496289821.29,25046,17.0,74048.3,2.97,-37.33,-37.51,0,*70
1496289822.57,25047,17.0,74032.0,2.97,-37.51,-37.63,0,*74
1496289823.79,25048,17.0,74038.5,2.97,-37.45,-37.45,0,*7A
1496289825.02,25049,17.0,74048.3,2.97,-37.15,-37.27,0,*7A
1496289826.25,25050,16.94,74038.5,3.01,-36.91,-36.97,0,*7B
1496289827.48,25051,17.0,74034.0,2.97,-36.97,-37.15,0,*79
1496289828.7,25052,16.94,74026.8,2.97,-37.27,-37.33,0,*74
1496289829.99,25053,17.0,74024.5,2.97,-37.51,-37.63,0,*71
1496289831.24,25054,16.94,74014.3,2.97,-37.69,-37.87,0,*77
1496289832.53,25055,17.0,74014.8,2.97,-37.81,-37.93,0,*75
1496289833.81,25056,17.0,74018.5,2.97,-37.69,-37.63,0,*7F
1496289835.07,25057,17.0,74020.3,2.97,-37.45,-37.51,0,*71
1496289836.34,25058,17.0,74026.8,2.97,-37.63,-37.69,0,*71
1496289837.56,25059,17.0,74016.0,2.97,-37.27,-37.45,0,*7E
1496289838.84,25060,17.0,74008.3,2.97,-37.51,-37.69,0,*7B
1496289840.12,25061,17.0,74004.3,2.97,-37.69,-37.81,0,*77
1496289841.4,25062,17.0,74018.8,2.97,-37.63,-37.63,0,*72
1496289842.65,25063,16.94,74016.5,2.95,-37.51,-37.51,0,*71
1496289843.87,25064,17.0,74016.8,2.97,-37.27,-37.45,0,*70
1496289845.13,25065,17.0,74024.5,2.97,-36.91,-37.15,0,*78
1496289846.36,25066,17.0,74024.0,2.97,-36.97,-37.27,0,*7C
1496289847.58,25067,17.0,74024.5,2.97,-37.15,-37.27,0,*76
1496289848.78,25068,17.0,74032.0,3.01,-37.33,-37.33,0,*76
1496289850.07,25069,17.0,74032.3,2.97,-37.63,-37.63,0,*79
1496289851.32,25070,17.0,74046.3,2.97,-37.45,-37.63,0,*75
1496289852.55,25071,17.0,74052.8,3.01,-37.27,-37.51,0,*7F
1496289853.8,25072,17.0,74044.5,2.97,-37.09,-37.45,0,*7B
1496289855.03,25073,17.0,74036.5,3.01,-36.97,-37.09,0,*7A
1496289856.28,25074,17.0,74040.0,2.97,-37.09,-37.33,0,*7C
1496289857.51,25075,17.0,74040.5,3.01,-37.45,-37.51,0,*7F
1496289858.75,25076,17.0,74030.8,3.01,-37.51,-37.69,0,*72
1496289859.98,25077,17.0,74030.8,3.01,-37.63,-37.87,0,*72
1496289861.26,25078,17.0,74028.5,2.97,-37.51,-37.63,0,*78
1496289862.52,25079,17.0,74028.8,3.01,-37.63,-37.81,0,*7A
1496289863.71,25080,17.0,74032.0,3.01,-37.33,-37.45,0,*71
1496289864.9,25081,17.0,74032.5,3.01,-37.27,-37.45,0,*75
1496289866.13,25082,17.0,74018.5,3.01,-37.69,-37.87,0,*72
1496289867.36,25083,17.0,74000.0,2.97,-37.27,-37.45,0,*79
1496289868.59,25084,17.0,74004.5,3.01,-37.09,-37.15,0,*79
1496289869.78,25085,17.0,74002.8,3.01,-37.27,-37.33,0,*70
1496289870.99,25086,17.0,74012.0,3.05,-37.03,-36.97,0,*7E
1496289872.22,25087,17.0,74066.5,3.05,-37.03,-37.21,0,*73
1496289873.42,25088,17.0,74072.3,3.05,-37.33,-37.33,0,*7C
1496289874.61,25089,17.0,74056.0,3.01,-37.27,-37.45,0,*7D
1496289875.81,25090,17.0,74040.8,3.01,-36.97,-37.27,0,*7B
1496289877.02,25091,17.0,74042.5,3.05,-37.03,-37.15,0,*73
1496289878.25,25092,17.0,74036.8,3.05,-37.21,-37.33,0,*74
1496289879.5,25093,17.0,74032.8,3.05,-37.39,-37.51,0,*78
1496289880.71,25094,17.0,74034.5,3.05,-37.57,-37.75,0,*71
1496289881.96,25095,17.0,74048.8,3.07,-37.33,-37.39,0,*78
1496289883.19,25096,17.0,74020.8,3.07,-36.85,-37.15,0,*79
1496289884.41,25097,17.0,74006.0,3.05,-36.79,-36.85,0,*71
1496289885.62,25098,17.0,74010.0,3.05,-36.85,-36.97,0,*7E
1496289886.84,25099,17.0,74000.8,3.07,-37.03,-37.03,0,*7E
1496289888.07,25100,17.0,73996.8,3.07,-36.97,-36.97,0,*7F
1496289889.31,25101,17.0,73998.0,3.09,-36.79,-36.91,0,*76
1496289890.54,25102,17.0,73998.8,3.09,-36.97,-37.09,0,*75
1496289891.74,25103,17.0,73998.3,3.09,-36.73,-36.97,0,*78
1496289892.96,25104,17.0,73994.0,3.11,-36.97,-37.27,0,*76
1496289894.18,25105,17.0,74004.0,3.09,-36.91,-36.97,0,*72
1496289895.4,25106,17.0,73994.8,3.09,-36.73,-36.79,0,*7D
1496289896.65,25107,17.0,74006.0,3.11,-36.55,-36.61,0,*78
1496289897.92,25108,17.0,74012.0,3.11,-36.49,-36.61,0,*7A
1496289899.17,25109,17.0,74014.0,3.11,-36.55,-36.61,0,*76
1496289900.4,25110,17.0,74020.3,3.13,-36.49,-36.73,0,*72
1496289901.62,25111,17.0,74014.0,3.13,-36.49,-36.73,0,*73
1496289902.84,25112,17.0,74012.3,3.15,-36.55,-36.85,0,*72
1496289904.06,25113,17.0,74006.8,3.13,-36.49,-36.85,0,*78
1496289905.31,25114,17.0,73996.0,3.15,-36.49,-36.73,0,*70
1496289906.56,25115,17.0,73996.8,3.15,-36.73,-37.09,0,*74
1496289907.81,25116,17.0,73982.5,3.15,-36.67,-36.91,0,*72
1496289909.02,25117,17.0,73974.0,3.15,-36.55,-36.85,0,*77
1496289910.25,25118,17.0,73974.3,3.15,-36.31,-36.73,0,*73
1496289911.47,25119,17.0,73998.8,3.15,-36.31,-36.67,0,*77
1496289912.72,25120,17.0,74006.5,3.17,-36.25,-36.61,0,*7C
1496289913.97,25121,17.0,74004.3,3.19,-36.19,-36.37,0,*7F
1496289915.22,25122,17.0,74006.3,3.19,-36.37,-36.55,0,*74
1496289916.47,25123,17.0,74016.8,3.19,-36.37,-36.55,0,*75
1496289917.68,25124,17.0,74016.0,3.21,-36.31,-36.55,0,*7F
1496289918.93,25125,17.0,74000.0,3.21,-36.37,-36.61,0,*7F
1496289920.18,25126,17.0,74006.0,3.21,-36.25,-36.61,0,*7F
1496289921.41,25127,17.0,74008.8,3.21,-36.31,-36.61,0,*7B
1496289922.62,25128,17.0,74010.3,3.21,-36.31,-36.55,0,*73
1496289923.84,25129,17.0,74020.0,3.25,-36.37,-36.73,0,*74
1496289925.06,25130,17.0,74016.0,3.25,-36.55,-36.91,0,*74
1496289926.26,25131,17.0,74024.0,3.25,-36.55,-36.85,0,*70
1496289927.48,25132,17.0,74018.3,3.25,-36.37,-36.73,0,*7E
1496289928.7,25133,17.0,74008.0,3.25,-36.67,-36.91,0,*76
1496289929.95,25134,17.0,73980.0,3.27,-36.49,-36.73,0,*73
1496289931.18,25135,17.0,73976.5,3.29,-36.61,-36.67,0,*73
1496289932.38,25136,17.0,73984.5,3.29,-36.67,-36.85,0,*7A
1496289933.61,25137,17.0,73980.0,3.29,-36.67,-36.79,0,*78
1496289934.86,25138,17.0,73978.8,3.29,-36.49,-36.61,0,*72
1496289936.09,25139,17.0,73982.3,3.29,-36.43,-36.61,0,*79
1496289937.31,25140,17.0,73976.5,3.29,-36.19,-36.25,0,*78
1496289938.55,25141,17.0,74000.8,3.29,-36.25,-36.31,0,*73
1496289939.75,25142,17.0,74006.8,3.29,-36.07,-36.43,0,*75
1496289941.0,25143,17.0,74006.8,3.31,-36.19,-36.25,0,*72
1496289942.25,25144,17.0,74008.0,3.31,-36.31,-36.61,0,*7F
1496289943.5,25145,17.06,73988.5,3.31,-36.07,-36.61,0,*7B
1496289944.75,25146,17.0,73988.3,3.33,-36.55,-36.91,0,*72
1496289946.0,25147,17.0,74002.3,3.31,-36.49,-36.97,0,*7A
1496289947.23,25148,17.06,74000.5,3.33,-36.19,-36.73,0,*78
1496289948.49,25149,17.06,74008.3,3.33,-36.37,-36.73,0,*75
1496289949.74,25150,17.06,74002.0,3.33,-36.55,-36.79,0,*73
1496289950.97,25151,17.0,74004.5,3.33,-36.73,-36.97,0,*76
1496289952.23,25152,17.06,73992.3,3.33,-36.91,-37.27,0,*73
1496289953.49,25153,17.0,73974.5,3.33,-36.79,-37.15,0,*75
1496289954.74,25154,17.0,73980.0,3.33,-36.55,-36.91,0,*71
1496289956.02,25155,17.0,73978.3,3.33,-36.79,-36.91,0,*7E
1496289957.22,25156,17.06,73992.0,3.35,-36.67,-36.85,0,*71
1496289958.45,25157,17.06,74000.3,3.35,-36.73,-36.91,0,*70
1496289959.67,25158,17.06,73984.0,3.37,-36.67,-36.85,0,*7D
1496289960.88,25159,17.0,73976.5,3.35,-36.73,-36.85,0,*7B
1496289962.13,25160,17.0,73964.5,3.37,-36.49,-36.73,0,*73
1496289963.34,25161,17.0,73970.3,3.35,-36.55,-36.73,0,*7D
1496289964.57,25162,17.06,73986.5,3.37,-36.55,-36.85,0,*75
1496289965.8,25163,17.06,73986.0,3.35,-36.49,-36.73,0,*72
1496289967.02,25164,17.06,73992.3,3.37,-36.55,-36.85,0,*73
1496289968.25,25165,17.06,73984.0,3.37,-36.73,-37.03,0,*79
1496289969.5,25166,17.06,73992.8,3.37,-36.49,-36.85,0,*7C
1496289970.73,25167,17.06,74002.8,3.37,-36.73,-37.03,0,*7B
1496289971.96,25168,17.06,73998.8,3.37,-36.55,-36.85,0,*7F
1496289973.16,25169,17.06,73990.0,3.39,-36.67,-36.97,0,*72
1496289974.38,25170,17.06,73982.5,3.39,-36.61,-36.97,0,*7C
1496289975.61,25171,17.06,73996.5,3.39,-36.61,-36.97,0,*7D
1496289976.83,25172,17.06,74010.3,3.39,-36.79,-37.03,0,*7B
1496289978.03,25173,17.06,74002.3,3.39,-37.27,-37.57,0,*71
1496289979.26,25174,17.06,73996.3,3.39,-37.57,-37.81,0,*7A
1496289980.52,25175,17.06,73982.3,3.39,-37.81,-37.99,0,*79
1496289981.74,25176,17.06,73976.5,3.39,-37.99,-38.17,0,*7A
1496289982.98,25177,17.06,73996.0,3.39,-37.21,-37.57,0,*73
1496289984.21,25178,17.06,73982.0,3.39,-37.81,-38.43,0,*7C
1496289985.44,25179,17.06,73994.5,3.35,-38.17,-38.49,0,*7B
1496289986.67,25180,17.06,74000.8,3.35,-38.05,-38.23,0,*72
1496289987.93,25181,17.06,73984.5,3.35,-37.69,-37.99,0,*78
1496289989.18,25182,17.06,73978.0,3.37,-37.33,-37.69,0,*79
1496289990.39,25183,17.06,73992.0,3.35,-37.45,-37.87,0,*7B
1496289991.62,25184,17.06,74000.0,3.35,-37.27,-37.63,0,*72
1496289992.85,25185,17.06,74006.3,3.35,-37.51,-37.87,0,*78
1496289994.08,25186,17.06,73990.5,3.35,-37.69,-38.17,0,*76
1496289995.31,25187,17.06,74016.5,3.35,-37.81,-38.05,0,*72
1496289996.54,25188,17.06,74028.0,3.35,-37.81,-38.05,0,*7D
1496289997.8,25189,17.06,74054.8,3.35,-38.23,-38.67,0,*7F
1496289999.06,25190,17.06,74024.0,3.33,-38.05,-38.29,0,*7F
1496290000.3,25191,17.06,74032.3,3.31,-37.93,-38.17,0,*71
1496290001.55,25192,17.06,74026.0,3.31,-37.93,-38.17,0,*72
1496290002.81,25193,17.06,74018.3,3.33,-37.87,-38.11,0,*72
1496290004.06,25194,17.06,74024.3,3.33,-38.11,-38.43,0,*72
1496290005.34,25195,17.06,74024.8,3.33,-37.93,-38.11,0,*71
1496290006.59,25196,17.06,74026.0,3.33,-38.05,-38.11,0,*72
1496290007.85,25197,17.06,74032.3,3.31,-37.81,-38.17,0,*74
1496290009.06,25198,17.06,74020.3,3.31,-37.75,-38.05,0,*73
1496290010.29,25199,17.06,74024.5,3.33,-37.75,-38.05,0,*70
1496290011.57,25200,17.06,74040.0,3.31,-37.81,-38.11,0,*7F
1496290012.82,25201,17.06,74028.0,3.31,-37.81,-38.17,0,*78
1496290014.07,25202,17.06,74012.0,3.31,-37.93,-38.17,0,*78
1496290015.27,25203,17.06,74018.0,3.29,-37.57,-37.75,0,*73
1496290016.5,25204,17.06,74030.0,3.29,-37.33,-37.63,0,*71
1496290017.75,25205,17.06,74032.0,3.31,-37.33,-37.81,0,*75
1496290019.02,25206,17.06,74010.3,3.31,-37.39,-37.93,0,*7F
1496290020.28,25207,17.06,74012.0,3.33,-37.51,-37.87,0,*77
1496290021.52,25208,17.06,74026.3,3.31,-37.75,-38.11,0,*7C
1496290022.77,25209,17.06,74026.5,3.31,-37.75,-38.11,0,*7D
1496290024.04,25210,17.06,74034.0,3.31,-37.81,-38.11,0,*7E
1496290025.32,25211,17.06,74024.3,3.31,-37.81,-38.11,0,*7F
1496290026.6,25212,17.06,74014.5,3.31,-38.11,-38.29,0,*71
1496290027.85,25213,17.06,74012.0,3.29,-38.29,-38.49,0,*74
1496290029.11,25214,17.06,74006.8,3.29,-37.93,-38.29,0,*7B
1496290030.34,25215,17.06,74048.8,3.29,-37.93,-38.17,0,*77
1496290031.59,25216,17.06,74036.3,3.29,-37.81,-38.11,0,*71
1496290032.83,25217,17.06,74036.3,3.29,-38.29,-38.55,0,*7D
1496290034.03,25218,17.06,74018.8,3.29,-38.61,-38.97,0,*70
1496290035.25,25219,17.06,74018.8,3.27,-38.55,-38.85,0,*7B
1496290036.5,25220,17.06,74008.3,3.27,-38.55,-38.67,0,*7D
1496290037.71,25221,17.06,74014.0,3.27,-38.43,-38.97,0,*74
1496290038.94,25222,17.06,74030.0,3.27,-38.43,-38.55,0,*79
1496290040.14,25223,17.06,74030.5,3.21,-38.35,-38.43,0,*78
1496290041.36,25224,17.06,74012.0,3.21,-38.61,-39.15,0,*7C
1496290042.61,25225,17.13,74014.8,3.21,-38.91,-39.41,0,*73
1496290043.83,25226,17.06,74006.5,3.21,-38.85,-39.23,0,*71
1496290045.08,25227,17.06,74026.5,3.21,-38.91,-39.41,0,*71
1496290046.33,25228,17.06,74030.0,3.19,-39.09,-39.41,0,*75
1496290047.57,25229,17.06,74020.5,3.17,-39.29,-39.53,0,*7B
1496290048.79,25230,17.06,74028.8,3.17,-38.73,-39.15,0,*7F
1496290050.05,25231,17.06,74034.8,3.15,-39.03,-39.53,0,*78
1496290051.29,25232,17.06,74042.3,3.15,-38.97,-39.23,0,*70
1496290052.52,25233,17.06,74022.8,3.13,-38.61,-38.79,0,*70
1496290053.77,25234,17.06,74032.8,3.15,-38.85,-39.15,0,*70
1496290055.04,25235,17.06,74022.3,3.15,-38.79,-39.15,0,*72
1496290056.28,25236,17.06,74012.5,3.13,-39.03,-39.53,0,*79
1496290057.52,25237,17.06,74010.5,3.13,-39.23,-39.53,0,*7A
1496290058.8,25238,17.06,74022.3,3.11,-39.23,-39.59,0,*7D
1496290060.04,25239,17.06,74014.5,3.11,-39.23,-39.47,0,*73
1496290061.28,25240,17.13,74002.8,3.09,-39.29,-39.59,0,*71
1496290062.53,25241,17.13,73986.8,3.09,-39.29,-39.59,0,*70
1496290063.78,25242,17.06,73972.0,3.09,-39.41,-39.79,0,*7F
1496290064.99,25243,17.06,73984.3,3.09,-39.23,-39.47,0,*77
1496290066.27,25244,17.13,74028.0,3.07,-38.91,-39.15,0,*71
1496290067.49,25245,17.06,74026.0,3.07,-38.73,-38.73,0,*7D
1496290068.68,25246,17.06,74058.5,3.05,-38.73,-38.73,0,*7C
1496290069.88,25247,17.06,74054.8,3.05,-38.73,-38.73,0,*7D
1496290071.08,25248,17.06,74048.0,3.05,-38.85,-38.97,0,*71
1496290072.31,25249,17.13,74014.8,3.05,-39.15,-39.47,0,*74
1496290073.53,25250,17.06,73990.5,3.01,-39.09,-39.41,0,*73
1496290074.77,25251,17.13,73990.0,2.97,-38.85,-39.09,0,*75
1496290075.99,25252,17.06,73982.8,2.97,-38.97,-39.09,0,*75
1496290077.25,25253,17.06,73980.3,3.01,-39.23,-39.59,0,*71
1496290078.47,25254,17.13,74010.5,2.97,-39.47,-39.85,0,*7B
1496290079.74,25255,17.06,74022.5,2.97,-39.79,-40.15,0,*70
1496290080.94,25256,17.13,74032.3,2.95,-39.47,-39.65,0,*75
1496290082.16,25257,17.06,74030.0,2.93,-39.35,-39.65,0,*77
1496290083.4,25258,17.13,74038.0,2.93,-38.91,-39.35,0,*72
1496290084.62,25259,17.13,74020.0,2.91,-38.97,-39.15,0,*75
1496290085.85,25260,17.13,74016.8,2.91,-38.79,-38.97,0,*74
1496290087.1,25261,17.06,74010.8,2.91,-38.91,-38.91,0,*75
1496290088.3,25262,17.13,74012.8,2.91,-38.73,-39.09,0,*7A
1496290089.5,25263,17.06,74018.3,2.91,-38.61,-38.97,0,*7E
1496290090.7,25264,17.13,74042.3,2.91,-38.73,-38.97,0,*7A
1496290091.9,25265,17.13,74044.0,2.91,-38.73,-38.97,0,*7B
1496290093.15,25266,17.13,74040.0,2.89,-38.79,-38.97,0,*7B
1496290094.42,25267,17.13,74032.8,2.89,-38.67,-39.15,0,*7E
1496290095.65,25268,17.13,74026.5,2.89,-38.61,-38.97,0,*7C
1496290096.93,25269,17.13,74014.5,2.89,-38.79,-39.15,0,*7F
1496290098.21,25270,17.13,74016.8,2.89,-38.79,-39.15,0,*77
1496290099.43,25271,17.13,74028.0,2.87,-38.97,-39.29,0,*77
1496290100.68,25272,17.13,74010.0,2.87,-39.41,-39.97,0,*7B
1496290101.94,25273,17.13,74010.0,2.85,-39.85,-40.09,0,*79
1496290103.2,25274,17.13,74030.3,2.85,-39.47,-40.09,0,*70
1496290104.46,25275,17.13,74024.5,2.85,-39.65,-40.09,0,*71
1496290105.69,25276,17.13,74006.3,2.83,-39.09,-39.53,0,*7F